STARLINK-32343, 61712

Orbit data source: Space-Track

STARLINK-32343, 61712 is a payload satellite owned by SpaceX/Seattle (US) in LEO that was launched on Wed, 30 Oct 2024 UTC via an FALCON 9 launch vehicle from the Air Force Eastern Test Range (AFETR). Payload-class satellites include a variety of spacecraft equipped with specific instruments for various scientific and technological missions. These include communications satellites like Starlink; space stations such as the ISS; scientific satellites like the Hubble; Earth observation satellites from companies like Planet Labs, Umbra, and HawkEye 360; GPS; miniature CubeSats for education and research; and military/defense satellites.

Loading next visibility...
Identifier
61712, 2024-196F
Orbit
LEO
Country
Flag of USUS
Related business
Manufacturer
SpaceX/Seattle
Mission
Operational Commercial Communications
Bus & Motor
STARLINK V2M, Unknown motor
Mass
730 kg wet, ~700 kg dry
Launch date (UTC)
2024-10-30 (1 year ago)
Launch vehicle
FALCON 9
Launch site
Air Force Eastern Test Range (AFETR)
Object type
Payload
Rocket body
Debris
Shape & HBR
Box + 2 Pan, 17.7 m
Radar Cross Section
33.884 m², Large (>1 m²)

Expand to show TLE details & history
Last TLE update: 9 hours ago

TLE from 9 hours ago
0 STARLINK-32343
1 61712U 24196F   25299.39203777  .00000832  00000-0  40224-4 0  9993
2 61712  53.1622   5.2363 0001200  99.1988 260.9148 15.30196038 56595
Epoch: 2025-10-26T09:24Z
TLE epoch observation values (Epoch: 2025-10-26T09:24:32.063Z)
Latitude
-0.00006°
Longitude
-170.90624°
Altitude
476.257 km
Speed
7.629 km/s
True Right ascension
00h 20m 56s
True Declination
0° 00' 00"
Sunlit
Object was in full shadow at epoch
Visualization orbit readout
Latitude
Unknown
Longitude
Unknown
Altitude
Unknown
Speed
Unknown
Apparent Right ascension
Unknown
Apparent Declination
Unknown
Sunlit
N/A
Visualization observer readout
Local Sidereal Time
13:20:39
Azimuth
Unknown
Elevation
Unknown
Doppler factor
Unknown
Orbital elements
Apogee altitude
476.305 km
Perigee altitude
474.661 km
Semi-major axis
6,853.62 km
Eccentricity
0.00012
Inclination
53.1622°
RAAN
5.2363°
Arg. of periapsis
99.1988°
True anomaly
260.90122°
Mean anomaly
260.9148°
Eccentric anomaly
260.90801°
Mean motion
3.82528 °/min
Orbital period
94.11 mins
BSTAR
0.000040224
Loading maneuver chart data...
Computing Atmospheric mass density...
Loading historical data...
Loading historical data...
Loading historical data...
Loading historical data...
Loading historical data...
Loading historical data...
Loading historical data...

Documentation

Showing up to 5 results
|